This is the latest recevied weather packets stored in our database for station/object KG5MMT-12. If no packets are shown the sender has not sent any weather packets the latest 10 day(s).
| Time | Temp. | Humidity | Pressure | Rain* | Wind** | Luminosity | Snow |
|---|---|---|---|---|---|---|---|
| 1787961557 | 20° C | 77% | 0 hPa | 0 mm | - | - | - |
| 1787961257 | 20.56° C | 77% | 0 hPa | 0 mm | - | - | - |
| 1787960957 | 20.56° C | 77% | 0 hPa | 0 mm | - | - | - |
| 1787960657 | 20.56° C | 78% | 0 hPa | 0 mm | - | - | - |
| 1787960357 | 20.56° C | 77% | 0 hPa | 0 mm | - | - | - |
| 1787960057 | 20.56° C | 75% | 0 hPa | 0 mm | - | - | - |
| 1787959757 | 21.11° C | 74% | 0 hPa | 0 mm | - | - | - |
| 1787959457 | 21.67° C | 71% | 0 hPa | 0 mm | - | - | - |
| 1787959157 | 22.22° C | 67% | 0 hPa | 0 mm | - | - | - |
| 1787958857 | 22.22° C | 63% | 0 hPa | 0 mm | - | - | - |
| 1787958557 | 22.78° C | 64% | 0 hPa | 0 mm | - | - | - |
| 1787958266 | 22.78° C | 63% | 0 hPa | 0 mm | - | - | - |
| 1787957957 | 22.78° C | 64% | 0 hPa | 0 mm | - | - | - |
| 1787957657 | 22.78° C | 65% | 0 hPa | 0 mm | - | - | - |
| 1787957357 | 22.22° C | 66% | 0 hPa | 0 mm | - | - | - |
| 1787957057 | 22.22° C | 73% | 0 hPa | 0 mm | - | - | - |
| 1787956757 | 21.67° C | 76% | 0 hPa | 0 mm | - | - | - |
| 1787956457 | 20.56° C | 75% | 0 hPa | 0 mm | - | - | - |
| 1787956157 | 20° C | 80% | 0 hPa | 0 mm | - | - | - |
| 1787955857 | 20° C | 82% | 0 hPa | 0 mm | - | - | - |
| 1787955557 | 19.44° C | 84% | 0 hPa | 0.25 mm | - | - | - |
| 1787955257 | 19.44° C | 84% | 0 hPa | 0.25 mm | - | - | - |
| 1787954957 | 19.44° C | 84% | 0 hPa | 0.25 mm | - | - | - |
| 1787954657 | 19.44° C | 83% | 0 hPa | 0.25 mm | - | - | - |
| 1787954357 | 19.44° C | 81% | 0 hPa | 0.51 mm | - | - | - |
* Rain latest hour (hover to see other rain measurements)
** Current wind speed in m/s (hover to see current wind gust speed)